owner,sensor,date,latitude,longitude,vertical_datum,sea_water_temperature,qcFlag 
FIT,ioos:station:wmo:SIPF1:1,2019-01-01T00:00:00Z,27.8620,-80.4450,8.0,23.5,11111222 
FIT,ioos:station:wmo:SIPF1:1,2019-01-01T00:15:00Z,27.8620,-80.4450,8.0,23.5,11111222 
FIT,ioos:station:wmo:SIPF1:1,2019-01-01T00:30:00Z,27.8620,-80.4450,8.0,23.5,11111222 
FIT,ioos:station:wmo:SIPF1:1,2019-01-01T00:45:00Z,27.8620,-80.4450,8.0,23.42,11111222 
FIT,ioos:station:wmo:SIPF1:1,2019-01-01T01:00:00Z,27.8620,-80.4450,8.0,23.3,11111222 
FIT,ioos:station:wmo:SIPF1:1,2019-01-01T01:15:00Z,27.8620,-80.4450,8.0,23.4,11111222 
FIT,ioos:station:wmo:SIPF1:1,2019-01-01T01:30:00Z,27.8620,-80.4450,8.0,23.6,11111222 
FIT,ioos:station:wmo:SIPF1:1,2019-01-01T01:45:00Z,27.8620,-80.4450,8.0,23.75,11111222 
FIT,ioos:station:wmo:SIPF1:1,2019-01-01T02:00:00Z,27.8620,-80.4450,8.0,23.8,11111222 
FIT,ioos:station:wmo:SIPF1:1,2019-01-01T02:15:00Z,27.8620,-80.4450,8.0,23.6,11111222 
FIT,ioos:station:wmo:SIPF1:1,2019-01-01T02:30:00Z,27.8620,-80.4450,8.0,23.5,11111222 
FIT,ioos:station:wmo:SIPF1:1,2019-01-01T02:45:00Z,27.8620,-80.4450,8.0,23.45,11111222 
FIT,ioos:station:wmo:SIPF1:1,2019-01-01T03:00:00Z,27.8620,-80.4450,8.0,23.4,11111222 
FIT,ioos:station:wmo:SIPF1:1,2019-01-01T03:15:00Z,27.8620,-80.4450,8.0,23.2,11111222 
FIT,ioos:station:wmo:SIPF1:1,2019-01-01T03:30:00Z,27.8620,-80.4450,8.0,23.1,11111222 
FIT,ioos:station:wmo:SIPF1:1,2019-01-01T03:45:00Z,27.8620,-80.4450,8.0,23.0,11111222 
FIT,ioos:station:wmo:SIPF1:1,2019-01-01T04:00:00Z,27.8620,-80.4450,8.0,22.9,11111222 
FIT,ioos:station:wmo:SIPF1:1,2019-01-01T04:15:00Z,27.8620,-80.4450,8.0,23.0,11111222 
FIT,ioos:station:wmo:SIPF1:1,2019-01-01T04:30:00Z,27.8620,-80.4450,8.0,23.1,11111222 
FIT,ioos:station:wmo:SIPF1:1,2019-01-01T04:45:00Z,27.8620,-80.4450,8.0,22.98,11111222 
FIT,ioos:station:wmo:SIPF1:1,2019-01-01T05:00:00Z,27.8620,-80.4450,8.0,22.9,11111222 
FIT,ioos:station:wmo:SIPF1:1,2019-01-01T05:15:00Z,27.8620,-80.4450,8.0,23.0,11111222 
FIT,ioos:station:wmo:SIPF1:1,2019-01-01T05:30:00Z,27.8620,-80.4450,8.0,23.1,11111222 
FIT,ioos:station:wmo:SIPF1:1,2019-01-01T05:45:00Z,27.8620,-80.4450,8.0,23.08,11111222 
FIT,ioos:station:wmo:SIPF1:1,2019-01-01T06:00:00Z,27.8620,-80.4450,8.0,23.1,11111222 
FIT,ioos:station:wmo:SIPF1:1,2019-01-01T06:15:00Z,27.8620,-80.4450,8.0,23.0,11111222 
FIT,ioos:station:wmo:SIPF1:1,2019-01-01T06:30:00Z,27.8620,-80.4450,8.0,22.8,11111222 
FIT,ioos:station:wmo:SIPF1:1,2019-01-01T06:45:00Z,27.8620,-80.4450,8.0,22.55,11111222 
FIT,ioos:station:wmo:SIPF1:1,2019-01-01T07:00:00Z,27.8620,-80.4450,8.0,22.3,11111222 
FIT,ioos:station:wmo:SIPF1:1,2019-01-01T07:15:00Z,27.8620,-80.4450,8.0,22.3,11111222 
FIT,ioos:station:wmo:SIPF1:1,2019-01-01T07:30:00Z,27.8620,-80.4450,8.0,22.2,11111222 
FIT,ioos:station:wmo:SIPF1:1,2019-01-01T07:45:00Z,27.8620,-80.4450,8.0,22.08,11111222 
FIT,ioos:station:wmo:SIPF1:1,2019-01-01T08:00:00Z,27.8620,-80.4450,8.0,21.9,11111222 
FIT,ioos:station:wmo:SIPF1:1,2019-01-01T08:15:00Z,27.8620,-80.4450,8.0,21.9,11111222 
FIT,ioos:station:wmo:SIPF1:1,2019-01-01T08:30:00Z,27.8620,-80.4450,8.0,21.9,11111222 
FIT,ioos:station:wmo:SIPF1:1,2019-01-01T08:45:00Z,27.8620,-80.4450,8.0,22.03,11111222 
FIT,ioos:station:wmo:SIPF1:1,2019-01-01T09:00:00Z,27.8620,-80.4450,8.0,21.9,11111222 
FIT,ioos:station:wmo:SIPF1:1,2019-01-01T09:15:00Z,27.8620,-80.4450,8.0,21.7,11111222 
FIT,ioos:station:wmo:SIPF1:1,2019-01-01T09:30:00Z,27.8620,-80.4450,8.0,21.8,11111222 
FIT,ioos:station:wmo:SIPF1:1,2019-01-01T09:45:00Z,27.8620,-80.4450,8.0,21.76,11111222 
FIT,ioos:station:wmo:SIPF1:1,2019-01-01T10:00:00Z,27.8620,-80.4450,8.0,21.6,11111222 
FIT,ioos:station:wmo:SIPF1:1,2019-01-01T10:15:00Z,27.8620,-80.4450,8.0,21.4,11111222 
FIT,ioos:station:wmo:SIPF1:1,2019-01-01T10:30:00Z,27.8620,-80.4450,8.0,21.3,11111222 
FIT,ioos:station:wmo:SIPF1:1,2019-01-01T10:45:00Z,27.8620,-80.4450,8.0,21.2,11111222 
FIT,ioos:station:wmo:SIPF1:1,2019-01-01T11:00:00Z,27.8620,-80.4450,8.0,21.1,11111222 
FIT,ioos:station:wmo:SIPF1:1,2019-01-01T11:15:00Z,27.8620,-80.4450,8.0,21.0,11111222 
FIT,ioos:station:wmo:SIPF1:1,2019-01-01T11:30:00Z,27.8620,-80.4450,8.0,20.9,11111222 
FIT,ioos:station:wmo:SIPF1:1,2019-01-01T11:45:00Z,27.8620,-80.4450,8.0,20.78,11111222 
FIT,ioos:station:wmo:SIPF1:1,2019-01-01T12:00:00Z,27.8620,-80.4450,8.0,20.7,11111222 
FIT,ioos:station:wmo:SIPF1:1,2019-01-01T12:15:00Z,27.8620,-80.4450,8.0,20.7,11111222 
FIT,ioos:station:wmo:SIPF1:1,2019-01-01T12:30:00Z,27.8620,-80.4450,8.0,20.6,11111222 
FIT,ioos:station:wmo:SIPF1:1,2019-01-01T12:45:00Z,27.8620,-80.4450,8.0,20.73,11111222 
FIT,ioos:station:wmo:SIPF1:1,2019-01-01T13:00:00Z,27.8620,-80.4450,8.0,21.2,11111222 
FIT,ioos:station:wmo:SIPF1:1,2019-01-01T13:15:00Z,27.8620,-80.4450,8.0,22.4,11111222 
FIT,ioos:station:wmo:SIPF1:1,2019-01-01T13:30:00Z,27.8620,-80.4450,8.0,23.3,11111222 
FIT,ioos:station:wmo:SIPF1:1,2019-01-01T13:45:00Z,27.8620,-80.4450,8.0,24.4,11111222 
FIT,ioos:station:wmo:SIPF1:1,2019-01-01T14:00:00Z,27.8620,-80.4450,8.0,25.6,11111222 
FIT,ioos:station:wmo:SIPF1:1,2019-01-01T14:15:00Z,27.8620,-80.4450,8.0,25.9,11111222 
FIT,ioos:station:wmo:SIPF1:1,2019-01-01T14:30:00Z,27.8620,-80.4450,8.0,25.2,11111222 
FIT,ioos:station:wmo:SIPF1:1,2019-01-01T14:45:00Z,27.8620,-80.4450,8.0,24.07,11111222 
FIT,ioos:station:wmo:SIPF1:1,2019-01-01T15:00:00Z,27.8620,-80.4450,8.0,23.2,11111222 
FIT,ioos:station:wmo:SIPF1:1,2019-01-01T15:15:00Z,27.8620,-80.4450,8.0,23.2,11111222 
FIT,ioos:station:wmo:SIPF1:1,2019-01-01T15:30:00Z,27.8620,-80.4450,8.0,23.3,11111222 
FIT,ioos:station:wmo:SIPF1:1,2019-01-01T15:45:00Z,27.8620,-80.4450,8.0,23.66,11111222 
FIT,ioos:station:wmo:SIPF1:1,2019-01-01T16:00:00Z,27.8620,-80.4450,8.0,23.5,11111222 
FIT,ioos:station:wmo:SIPF1:1,2019-01-01T16:15:00Z,27.8620,-80.4450,8.0,23.3,11111222 
FIT,ioos:station:wmo:SIPF1:1,2019-01-01T16:30:00Z,27.8620,-80.4450,8.0,23.2,11111222 
FIT,ioos:station:wmo:SIPF1:1,2019-01-01T16:45:00Z,27.8620,-80.4450,8.0,23.54,11111222 
FIT,ioos:station:wmo:SIPF1:1,2019-01-01T17:00:00Z,27.8620,-80.4450,8.0,23.9,11111222 
FIT,ioos:station:wmo:SIPF1:1,2019-01-01T17:15:00Z,27.8620,-80.4450,8.0,23.6,11111222 
FIT,ioos:station:wmo:SIPF1:1,2019-01-01T17:30:00Z,27.8620,-80.4450,8.0,23.7,11111222 
FIT,ioos:station:wmo:SIPF1:1,2019-01-01T17:45:00Z,27.8620,-80.4450,8.0,24.22,11111222 
FIT,ioos:station:wmo:SIPF1:1,2019-01-01T18:00:00Z,27.8620,-80.4450,8.0,24.2,11111222 
FIT,ioos:station:wmo:SIPF1:1,2019-01-01T18:15:00Z,27.8620,-80.4450,8.0,24.5,11111222 
FIT,ioos:station:wmo:SIPF1:1,2019-01-01T18:30:00Z,27.8620,-80.4450,8.0,24.2,11111222 
FIT,ioos:station:wmo:SIPF1:1,2019-01-01T18:45:00Z,27.8620,-80.4450,8.0,24.46,11111222 
FIT,ioos:station:wmo:SIPF1:1,2019-01-01T19:00:00Z,27.8620,-80.4450,8.0,24.6,11111222 
FIT,ioos:station:wmo:SIPF1:1,2019-01-01T19:15:00Z,27.8620,-80.4450,8.0,24.8,11111222 
FIT,ioos:station:wmo:SIPF1:1,2019-01-01T19:30:00Z,27.8620,-80.4450,8.0,24.5,11111222 
FIT,ioos:station:wmo:SIPF1:1,2019-01-01T19:45:00Z,27.8620,-80.4450,8.0,24.64,11111222 
FIT,ioos:station:wmo:SIPF1:1,2019-01-01T20:00:00Z,27.8620,-80.4450,8.0,24.8,11111222 
FIT,ioos:station:wmo:SIPF1:1,2019-01-01T20:15:00Z,27.8620,-80.4450,8.0,24.5,11111222 
FIT,ioos:station:wmo:SIPF1:1,2019-01-01T20:30:00Z,27.8620,-80.4450,8.0,24.4,11111222 
FIT,ioos:station:wmo:SIPF1:1,2019-01-01T20:45:00Z,27.8620,-80.4450,8.0,24.26,11111222 
FIT,ioos:station:wmo:SIPF1:1,2019-01-01T21:00:00Z,27.8620,-80.4450,8.0,24.2,11111222 
FIT,ioos:station:wmo:SIPF1:1,2019-01-01T21:15:00Z,27.8620,-80.4450,8.0,24.2,11111222 
FIT,ioos:station:wmo:SIPF1:1,2019-01-01T21:30:00Z,27.8620,-80.4450,8.0,24.2,11111222 
FIT,ioos:station:wmo:SIPF1:1,2019-01-01T21:45:00Z,27.8620,-80.4450,8.0,24.03,11111222 
FIT,ioos:station:wmo:SIPF1:1,2019-01-01T22:00:00Z,27.8620,-80.4450,8.0,24.0,11111222 
FIT,ioos:station:wmo:SIPF1:1,2019-01-01T22:15:00Z,27.8620,-80.4450,8.0,24.1,11111222 
FIT,ioos:station:wmo:SIPF1:1,2019-01-01T22:30:00Z,27.8620,-80.4450,8.0,24.0,11111222 
FIT,ioos:station:wmo:SIPF1:1,2019-01-01T22:45:00Z,27.8620,-80.4450,8.0,23.9,11111222 
FIT,ioos:station:wmo:SIPF1:1,2019-01-01T23:00:00Z,27.8620,-80.4450,8.0,23.9,11111222 
FIT,ioos:station:wmo:SIPF1:1,2019-01-01T23:15:00Z,27.8620,-80.4450,8.0,23.8,11111222 
FIT,ioos:station:wmo:SIPF1:1,2019-01-01T23:30:00Z,27.8620,-80.4450,8.0,23.8,11111222 
FIT,ioos:station:wmo:SIPF1:1,2019-01-01T23:45:00Z,27.8620,-80.4450,8.0,23.85,11111222 
FIT,ioos:station:wmo:SIPF1:1,2019-01-02T00:00:00Z,27.8620,-80.4450,8.0,23.9,11111222 
FIT,ioos:station:wmo:SIPF1:1,2019-01-02T00:15:00Z,27.8620,-80.4450,8.0,23.82,11111222 
FIT,ioos:station:wmo:SIPF1:1,2019-01-02T01:15:00Z,27.8620,-80.4450,8.0,23.7,11111222 
FIT,ioos:station:wmo:SIPF1:1,2019-01-02T01:30:00Z,27.8620,-80.4450,8.0,23.7,11111222 
FIT,ioos:station:wmo:SIPF1:1,2019-01-02T01:45:00Z,27.8620,-80.4450,8.0,23.59,11111222 
FIT,ioos:station:wmo:SIPF1:1,2019-01-02T02:00:00Z,27.8620,-80.4450,8.0,23.5,11111222 
FIT,ioos:station:wmo:SIPF1:1,2019-01-02T02:15:00Z,27.8620,-80.4450,8.0,23.5,11111222 
FIT,ioos:station:wmo:SIPF1:1,2019-01-02T02:30:00Z,27.8620,-80.4450,8.0,23.6,11111222 
FIT,ioos:station:wmo:SIPF1:1,2019-01-02T02:45:00Z,27.8620,-80.4450,8.0,23.5,11111222 
FIT,ioos:station:wmo:SIPF1:1,2019-01-02T03:00:00Z,27.8620,-80.4450,8.0,23.5,11111222 
FIT,ioos:station:wmo:SIPF1:1,2019-01-02T03:15:00Z,27.8620,-80.4450,8.0,23.4,11111222 
FIT,ioos:station:wmo:SIPF1:1,2019-01-02T03:30:00Z,27.8620,-80.4450,8.0,23.3,11111222 
FIT,ioos:station:wmo:SIPF1:1,2019-01-02T03:45:00Z,27.8620,-80.4450,8.0,23.1,11111222 
FIT,ioos:station:wmo:SIPF1:1,2019-01-02T04:00:00Z,27.8620,-80.4450,8.0,22.9,11111222 
FIT,ioos:station:wmo:SIPF1:1,2019-01-02T04:15:00Z,27.8620,-80.4450,8.0,22.9,11111222 
FIT,ioos:station:wmo:SIPF1:1,2019-01-02T04:30:00Z,27.8620,-80.4450,8.0,22.9,11111222 
FIT,ioos:station:wmo:SIPF1:1,2019-01-02T04:45:00Z,27.8620,-80.4450,8.0,22.91,11111222 
FIT,ioos:station:wmo:SIPF1:1,2019-01-02T05:00:00Z,27.8620,-80.4450,8.0,22.6,11111222 
FIT,ioos:station:wmo:SIPF1:1,2019-01-02T05:15:00Z,27.8620,-80.4450,8.0,22.5,11111222 
FIT,ioos:station:wmo:SIPF1:1,2019-01-02T05:30:00Z,27.8620,-80.4450,8.0,22.0,11111222 
FIT,ioos:station:wmo:SIPF1:1,2019-01-02T05:45:00Z,27.8620,-80.4450,8.0,21.84,11111222 
FIT,ioos:station:wmo:SIPF1:1,2019-01-02T06:00:00Z,27.8620,-80.4450,8.0,21.7,11111222 
FIT,ioos:station:wmo:SIPF1:1,2019-01-02T06:15:00Z,27.8620,-80.4450,8.0,21.7,11111222 
FIT,ioos:station:wmo:SIPF1:1,2019-01-02T06:30:00Z,27.8620,-80.4450,8.0,21.6,11111222 
FIT,ioos:station:wmo:SIPF1:1,2019-01-02T06:45:00Z,27.8620,-80.4450,8.0,21.39,11111222 
FIT,ioos:station:wmo:SIPF1:1,2019-01-02T07:00:00Z,27.8620,-80.4450,8.0,21.2,11111222 
FIT,ioos:station:wmo:SIPF1:1,2019-01-02T07:15:00Z,27.8620,-80.4450,8.0,21.0,11111222 
FIT,ioos:station:wmo:SIPF1:1,2019-01-02T07:30:00Z,27.8620,-80.4450,8.0,20.9,11111222 
FIT,ioos:station:wmo:SIPF1:1,2019-01-02T07:45:00Z,27.8620,-80.4450,8.0,20.76,11111222 
FIT,ioos:station:wmo:SIPF1:1,2019-01-02T08:00:00Z,27.8620,-80.4450,8.0,20.6,11111222 
FIT,ioos:station:wmo:SIPF1:1,2019-01-02T08:15:00Z,27.8620,-80.4450,8.0,20.6,11111222 
FIT,ioos:station:wmo:SIPF1:1,2019-01-02T08:30:00Z,27.8620,-80.4450,8.0,20.4,11111222 
FIT,ioos:station:wmo:SIPF1:1,2019-01-02T08:45:00Z,27.8620,-80.4450,8.0,20.38,11111222 
FIT,ioos:station:wmo:SIPF1:1,2019-01-02T09:00:00Z,27.8620,-80.4450,8.0,20.3,11111222 
FIT,ioos:station:wmo:SIPF1:1,2019-01-02T09:15:00Z,27.8620,-80.4450,8.0,20.4,11111222 
FIT,ioos:station:wmo:SIPF1:1,2019-01-02T09:30:00Z,27.8620,-80.4450,8.0,20.4,11111222 
FIT,ioos:station:wmo:SIPF1:1,2019-01-02T09:45:00Z,27.8620,-80.4450,8.0,20.27,11111222 
FIT,ioos:station:wmo:SIPF1:1,2019-01-02T10:00:00Z,27.8620,-80.4450,8.0,20.3,11111222 
FIT,ioos:station:wmo:SIPF1:1,2019-01-02T10:15:00Z,27.8620,-80.4450,8.0,20.3,11111222 
FIT,ioos:station:wmo:SIPF1:1,2019-01-02T10:30:00Z,27.8620,-80.4450,8.0,20.2,11111222 
FIT,ioos:station:wmo:SIPF1:1,2019-01-02T10:45:00Z,27.8620,-80.4450,8.0,20.28,11111222 
FIT,ioos:station:wmo:SIPF1:1,2019-01-02T11:00:00Z,27.8620,-80.4450,8.0,20.3,11111222 
FIT,ioos:station:wmo:SIPF1:1,2019-01-02T11:15:00Z,27.8620,-80.4450,8.0,20.2,11111222 
FIT,ioos:station:wmo:SIPF1:1,2019-01-02T11:30:00Z,27.8620,-80.4450,8.0,20.0,11111222 
FIT,ioos:station:wmo:SIPF1:1,2019-01-02T11:45:00Z,27.8620,-80.4450,8.0,19.89,11111222 
FIT,ioos:station:wmo:SIPF1:1,2019-01-02T12:00:00Z,27.8620,-80.4450,8.0,19.9,11111222 
FIT,ioos:station:wmo:SIPF1:1,2019-01-02T12:45:00Z,27.8620,-80.4450,8.0,20.45,11111222 
FIT,ioos:station:wmo:SIPF1:1,2019-01-02T13:45:00Z,27.8620,-80.4450,8.0,22.88,11111222 
FIT,ioos:station:wmo:SIPF1:1,2019-01-02T14:45:00Z,27.8620,-80.4450,8.0,23.35,11111222 
FIT,ioos:station:wmo:SIPF1:1,2019-01-02T15:45:00Z,27.8620,-80.4450,8.0,23.51,11111222 
FIT,ioos:station:wmo:SIPF1:1,2019-01-02T16:45:00Z,27.8620,-80.4450,8.0,23.68,11111222 
FIT,ioos:station:wmo:SIPF1:1,2019-01-02T17:45:00Z,27.8620,-80.4450,8.0,24.03,11111222 
FIT,ioos:station:wmo:SIPF1:1,2019-01-02T18:45:00Z,27.8620,-80.4450,8.0,24.02,11111222 
FIT,ioos:station:wmo:SIPF1:1,2019-01-02T19:45:00Z,27.8620,-80.4450,8.0,23.84,11111222 
FIT,ioos:station:wmo:SIPF1:1,2019-01-02T20:30:00Z,27.8620,-80.4450,8.0,23.9,11111222 
FIT,ioos:station:wmo:SIPF1:1,2019-01-02T20:45:00Z,27.8620,-80.4450,8.0,23.91,11111222 
FIT,ioos:station:wmo:SIPF1:1,2019-01-02T21:00:00Z,27.8620,-80.4450,8.0,23.9,11111222 
FIT,ioos:station:wmo:SIPF1:1,2019-01-02T21:15:00Z,27.8620,-80.4450,8.0,23.8,11111222 
FIT,ioos:station:wmo:SIPF1:1,2019-01-02T21:30:00Z,27.8620,-80.4450,8.0,23.8,11111222 
FIT,ioos:station:wmo:SIPF1:1,2019-01-02T21:45:00Z,27.8620,-80.4450,8.0,23.67,11111222 
FIT,ioos:station:wmo:SIPF1:1,2019-01-02T22:00:00Z,27.8620,-80.4450,8.0,23.6,11111222 
FIT,ioos:station:wmo:SIPF1:1,2019-01-02T22:15:00Z,27.8620,-80.4450,8.0,23.6,11111222 
FIT,ioos:station:wmo:SIPF1:1,2019-01-02T22:30:00Z,27.8620,-80.4450,8.0,23.5,11111222 
FIT,ioos:station:wmo:SIPF1:1,2019-01-02T22:45:00Z,27.8620,-80.4450,8.0,23.39,11111222 
FIT,ioos:station:wmo:SIPF1:1,2019-01-02T23:00:00Z,27.8620,-80.4450,8.0,23.4,11111222 
FIT,ioos:station:wmo:SIPF1:1,2019-01-02T23:15:00Z,27.8620,-80.4450,8.0,23.3,11111222 
FIT,ioos:station:wmo:SIPF1:1,2019-01-02T23:30:00Z,27.8620,-80.4450,8.0,23.4,11111222 
FIT,ioos:station:wmo:SIPF1:1,2019-01-02T23:45:00Z,27.8620,-80.4450,8.0,23.4,11111222 
FIT,ioos:station:wmo:SIPF1:1,2019-01-03T00:00:00Z,27.8620,-80.4450,8.0,23.4,11111222 
FIT,ioos:station:wmo:SIPF1:1,2019-01-03T00:15:00Z,27.8620,-80.4450,8.0,23.5,11111222 
FIT,ioos:station:wmo:SIPF1:1,2019-01-03T00:30:00Z,27.8620,-80.4450,8.0,23.6,11111222 
FIT,ioos:station:wmo:SIPF1:1,2019-01-03T00:45:00Z,27.8620,-80.4450,8.0,23.57,11111222 
FIT,ioos:station:wmo:SIPF1:1,2019-01-03T01:00:00Z,27.8620,-80.4450,8.0,23.6,11111222 
FIT,ioos:station:wmo:SIPF1:1,2019-01-03T01:15:00Z,27.8620,-80.4450,8.0,23.6,11111222 
FIT,ioos:station:wmo:SIPF1:1,2019-01-03T01:30:00Z,27.8620,-80.4450,8.0,23.6,11111222 
FIT,ioos:station:wmo:SIPF1:1,2019-01-03T01:45:00Z,27.8620,-80.4450,8.0,23.57,11111222 
FIT,ioos:station:wmo:SIPF1:1,2019-01-03T02:00:00Z,27.8620,-80.4450,8.0,23.5,11111222 
FIT,ioos:station:wmo:SIPF1:1,2019-01-03T02:15:00Z,27.8620,-80.4450,8.0,23.6,11111222 
FIT,ioos:station:wmo:SIPF1:1,2019-01-03T02:30:00Z,27.8620,-80.4450,8.0,23.6,11111222 
FIT,ioos:station:wmo:SIPF1:1,2019-01-03T02:45:00Z,27.8620,-80.4450,8.0,23.65,11111222 
FIT,ioos:station:wmo:SIPF1:1,2019-01-03T03:00:00Z,27.8620,-80.4450,8.0,23.8,11111222 
FIT,ioos:station:wmo:SIPF1:1,2019-01-03T03:15:00Z,27.8620,-80.4450,8.0,23.8,11111222 
FIT,ioos:station:wmo:SIPF1:1,2019-01-03T03:30:00Z,27.8620,-80.4450,8.0,23.8,11111222 
FIT,ioos:station:wmo:SIPF1:1,2019-01-03T03:45:00Z,27.8620,-80.4450,8.0,23.89,11111222 
FIT,ioos:station:wmo:SIPF1:1,2019-01-03T04:00:00Z,27.8620,-80.4450,8.0,23.9,11111222 
FIT,ioos:station:wmo:SIPF1:1,2019-01-03T04:15:00Z,27.8620,-80.4450,8.0,23.8,11111222 
FIT,ioos:station:wmo:SIPF1:1,2019-01-03T04:30:00Z,27.8620,-80.4450,8.0,23.8,11111222 
FIT,ioos:station:wmo:SIPF1:1,2019-01-03T04:45:00Z,27.8620,-80.4450,8.0,23.74,11111222 
FIT,ioos:station:wmo:SIPF1:1,2019-01-03T05:00:00Z,27.8620,-80.4450,8.0,23.7,11111222 
FIT,ioos:station:wmo:SIPF1:1,2019-01-03T05:15:00Z,27.8620,-80.4450,8.0,23.7,11111222 
FIT,ioos:station:wmo:SIPF1:1,2019-01-03T05:30:00Z,27.8620,-80.4450,8.0,23.7,11111222 
FIT,ioos:station:wmo:SIPF1:1,2019-01-03T05:45:00Z,27.8620,-80.4450,8.0,23.71,11111222 
FIT,ioos:station:wmo:SIPF1:1,2019-01-03T06:00:00Z,27.8620,-80.4450,8.0,23.7,11111222 
FIT,ioos:station:wmo:SIPF1:1,2019-01-03T06:15:00Z,27.8620,-80.4450,8.0,23.7,11111222 
FIT,ioos:station:wmo:SIPF1:1,2019-01-03T06:30:00Z,27.8620,-80.4450,8.0,23.7,11111222 
FIT,ioos:station:wmo:SIPF1:1,2019-01-03T06:45:00Z,27.8620,-80.4450,8.0,23.71,11111222 
FIT,ioos:station:wmo:SIPF1:1,2019-01-03T07:00:00Z,27.8620,-80.4450,8.0,23.6,11111222 
FIT,ioos:station:wmo:SIPF1:1,2019-01-03T07:15:00Z,27.8620,-80.4450,8.0,23.7,11111222 
FIT,ioos:station:wmo:SIPF1:1,2019-01-03T07:30:00Z,27.8620,-80.4450,8.0,23.7,11111222 
FIT,ioos:station:wmo:SIPF1:1,2019-01-03T07:45:00Z,27.8620,-80.4450,8.0,23.62,11111222 
FIT,ioos:station:wmo:SIPF1:1,2019-01-03T08:00:00Z,27.8620,-80.4450,8.0,23.4,11111222 
FIT,ioos:station:wmo:SIPF1:1,2019-01-03T08:15:00Z,27.8620,-80.4450,8.0,23.2,11111222 
FIT,ioos:station:wmo:SIPF1:1,2019-01-03T08:30:00Z,27.8620,-80.4450,8.0,22.8,11111222 
FIT,ioos:station:wmo:SIPF1:1,2019-01-03T08:45:00Z,27.8620,-80.4450,8.0,22.71,11111222 
FIT,ioos:station:wmo:SIPF1:1,2019-01-03T09:00:00Z,27.8620,-80.4450,8.0,22.6,11111222 
FIT,ioos:station:wmo:SIPF1:1,2019-01-03T09:15:00Z,27.8620,-80.4450,8.0,22.4,11111222 
FIT,ioos:station:wmo:SIPF1:1,2019-01-03T09:30:00Z,27.8620,-80.4450,8.0,22.3,11111222 
FIT,ioos:station:wmo:SIPF1:1,2019-01-03T09:45:00Z,27.8620,-80.4450,8.0,22.17,11111222 
FIT,ioos:station:wmo:SIPF1:1,2019-01-03T10:00:00Z,27.8620,-80.4450,8.0,22.0,11111222 
FIT,ioos:station:wmo:SIPF1:1,2019-01-03T10:15:00Z,27.8620,-80.4450,8.0,22.0,11111222 
FIT,ioos:station:wmo:SIPF1:1,2019-01-03T10:30:00Z,27.8620,-80.4450,8.0,21.9,11111222 
FIT,ioos:station:wmo:SIPF1:1,2019-01-03T10:45:00Z,27.8620,-80.4450,8.0,21.89,11111222 
FIT,ioos:station:wmo:SIPF1:1,2019-01-03T11:00:00Z,27.8620,-80.4450,8.0,21.8,11111222 
FIT,ioos:station:wmo:SIPF1:1,2019-01-03T11:15:00Z,27.8620,-80.4450,8.0,21.7,11111222 
FIT,ioos:station:wmo:SIPF1:1,2019-01-03T11:30:00Z,27.8620,-80.4450,8.0,21.8,11111222 
FIT,ioos:station:wmo:SIPF1:1,2019-01-03T11:45:00Z,27.8620,-80.4450,8.0,21.84,11111222 
FIT,ioos:station:wmo:SIPF1:1,2019-01-03T12:00:00Z,27.8620,-80.4450,8.0,21.8,11111222 
FIT,ioos:station:wmo:SIPF1:1,2019-01-03T12:15:00Z,27.8620,-80.4450,8.0,21.7,11111222 
FIT,ioos:station:wmo:SIPF1:1,2019-01-03T12:30:00Z,27.8620,-80.4450,8.0,21.6,11111222 
FIT,ioos:station:wmo:SIPF1:1,2019-01-03T12:45:00Z,27.8620,-80.4450,8.0,21.69,11111222 
FIT,ioos:station:wmo:SIPF1:1,2019-01-03T13:00:00Z,27.8620,-80.4450,8.0,21.7,11111222 
FIT,ioos:station:wmo:SIPF1:1,2019-01-03T13:15:00Z,27.8620,-80.4450,8.0,22.0,11111222 
FIT,ioos:station:wmo:SIPF1:1,2019-01-03T13:30:00Z,27.8620,-80.4450,8.0,22.4,11111222 
FIT,ioos:station:wmo:SIPF1:1,2019-01-03T13:45:00Z,27.8620,-80.4450,8.0,22.72,11111222 
FIT,ioos:station:wmo:SIPF1:1,2019-01-03T14:00:00Z,27.8620,-80.4450,8.0,23.3,11111222 
FIT,ioos:station:wmo:SIPF1:1,2019-01-03T14:15:00Z,27.8620,-80.4450,8.0,22.9,11111222 
FIT,ioos:station:wmo:SIPF1:1,2019-01-03T14:30:00Z,27.8620,-80.4450,8.0,22.5,11111222 
FIT,ioos:station:wmo:SIPF1:1,2019-01-03T14:45:00Z,27.8620,-80.4450,8.0,23.1,11111222 
FIT,ioos:station:wmo:SIPF1:1,2019-01-03T15:00:00Z,27.8620,-80.4450,8.0,23.6,11111222 
FIT,ioos:station:wmo:SIPF1:1,2019-01-03T15:15:00Z,27.8620,-80.4450,8.0,23.5,11111222 
FIT,ioos:station:wmo:SIPF1:1,2019-01-03T15:30:00Z,27.8620,-80.4450,8.0,23.5,11111222 
FIT,ioos:station:wmo:SIPF1:1,2019-01-03T15:45:00Z,27.8620,-80.4450,8.0,24.19,11111222 
FIT,ioos:station:wmo:SIPF1:1,2019-01-03T16:00:00Z,27.8620,-80.4450,8.0,25.3,11111222 
FIT,ioos:station:wmo:SIPF1:1,2019-01-03T16:15:00Z,27.8620,-80.4450,8.0,25.4,11111222 
FIT,ioos:station:wmo:SIPF1:1,2019-01-03T16:30:00Z,27.8620,-80.4450,8.0,25.0,11111222 
FIT,ioos:station:wmo:SIPF1:1,2019-01-03T16:45:00Z,27.8620,-80.4450,8.0,24.95,11111222 
FIT,ioos:station:wmo:SIPF1:1,2019-01-03T17:00:00Z,27.8620,-80.4450,8.0,25.1,11111222 
FIT,ioos:station:wmo:SIPF1:1,2019-01-03T17:15:00Z,27.8620,-80.4450,8.0,25.0,11111222 
FIT,ioos:station:wmo:SIPF1:1,2019-01-03T17:30:00Z,27.8620,-80.4450,8.0,24.9,11111222 
FIT,ioos:station:wmo:SIPF1:1,2019-01-03T17:45:00Z,27.8620,-80.4450,8.0,24.73,11111222 
FIT,ioos:station:wmo:SIPF1:1,2019-01-03T18:00:00Z,27.8620,-80.4450,8.0,24.5,11111222 
FIT,ioos:station:wmo:SIPF1:1,2019-01-03T18:15:00Z,27.8620,-80.4450,8.0,24.4,11111222 
FIT,ioos:station:wmo:SIPF1:1,2019-01-03T18:30:00Z,27.8620,-80.4450,8.0,24.4,11111222 
FIT,ioos:station:wmo:SIPF1:1,2019-01-03T18:45:00Z,27.8620,-80.4450,8.0,24.48,11111222 
FIT,ioos:station:wmo:SIPF1:1,2019-01-03T19:00:00Z,27.8620,-80.4450,8.0,24.5,11111222 
FIT,ioos:station:wmo:SIPF1:1,2019-01-03T19:15:00Z,27.8620,-80.4450,8.0,24.5,11111222 
FIT,ioos:station:wmo:SIPF1:1,2019-01-03T19:30:00Z,27.8620,-80.4450,8.0,24.5,11111222 
FIT,ioos:station:wmo:SIPF1:1,2019-01-03T19:45:00Z,27.8620,-80.4450,8.0,24.59,11111222 
FIT,ioos:station:wmo:SIPF1:1,2019-01-03T20:00:00Z,27.8620,-80.4450,8.0,24.5,11111222 
FIT,ioos:station:wmo:SIPF1:1,2019-01-03T20:15:00Z,27.8620,-80.4450,8.0,24.5,11111222 
FIT,ioos:station:wmo:SIPF1:1,2019-01-03T20:30:00Z,27.8620,-80.4450,8.0,24.5,11111222 
FIT,ioos:station:wmo:SIPF1:1,2019-01-03T20:45:00Z,27.8620,-80.4450,8.0,24.52,11111222 
FIT,ioos:station:wmo:SIPF1:1,2019-01-03T21:00:00Z,27.8620,-80.4450,8.0,24.5,11111222 
FIT,ioos:station:wmo:SIPF1:1,2019-01-03T21:15:00Z,27.8620,-80.4450,8.0,24.5,11111222 
FIT,ioos:station:wmo:SIPF1:1,2019-01-03T21:30:00Z,27.8620,-80.4450,8.0,24.5,11111222 
FIT,ioos:station:wmo:SIPF1:1,2019-01-03T21:45:00Z,27.8620,-80.4450,8.0,24.44,11111222 
FIT,ioos:station:wmo:SIPF1:1,2019-01-03T22:00:00Z,27.8620,-80.4450,8.0,24.5,11111222 
FIT,ioos:station:wmo:SIPF1:1,2019-01-03T22:15:00Z,27.8620,-80.4450,8.0,24.5,11111222 
FIT,ioos:station:wmo:SIPF1:1,2019-01-03T22:30:00Z,27.8620,-80.4450,8.0,24.4,11111222 
FIT,ioos:station:wmo:SIPF1:1,2019-01-03T22:45:00Z,27.8620,-80.4450,8.0,24.38,11111222 
FIT,ioos:station:wmo:SIPF1:1,2019-01-03T23:00:00Z,27.8620,-80.4450,8.0,24.3,11111222 
FIT,ioos:station:wmo:SIPF1:1,2019-01-03T23:15:00Z,27.8620,-80.4450,8.0,24.3,11111222 
FIT,ioos:station:wmo:SIPF1:1,2019-01-03T23:30:00Z,27.8620,-80.4450,8.0,24.3,11111222 
FIT,ioos:station:wmo:SIPF1:1,2019-01-03T23:45:00Z,27.8620,-80.4450,8.0,24.24,11111222 
FIT,ioos:station:wmo:SIPF1:1,2019-01-04T00:00:00Z,27.8620,-80.4450,8.0,24.2,11111222 
FIT,ioos:station:wmo:SIPF1:1,2019-01-04T00:15:00Z,27.8620,-80.4450,8.0,24.3,11111222 
FIT,ioos:station:wmo:SIPF1:1,2019-01-04T00:30:00Z,27.8620,-80.4450,8.0,24.2,11111222 
FIT,ioos:station:wmo:SIPF1:1,2019-01-04T00:45:00Z,27.8620,-80.4450,8.0,24.23,11111222 
FIT,ioos:station:wmo:SIPF1:1,2019-01-04T01:00:00Z,27.8620,-80.4450,8.0,24.3,11111222 
FIT,ioos:station:wmo:SIPF1:1,2019-01-04T01:15:00Z,27.8620,-80.4450,8.0,24.2,11111222 
FIT,ioos:station:wmo:SIPF1:1,2019-01-04T01:30:00Z,27.8620,-80.4450,8.0,24.2,11111222 
FIT,ioos:station:wmo:SIPF1:1,2019-01-04T01:45:00Z,27.8620,-80.4450,8.0,24.13,11111222 
FIT,ioos:station:wmo:SIPF1:1,2019-01-04T02:00:00Z,27.8620,-80.4450,8.0,24.1,11111222 
FIT,ioos:station:wmo:SIPF1:1,2019-01-04T02:15:00Z,27.8620,-80.4450,8.0,24.1,11111222 
FIT,ioos:station:wmo:SIPF1:1,2019-01-04T02:30:00Z,27.8620,-80.4450,8.0,23.9,11111222 
FIT,ioos:station:wmo:SIPF1:1,2019-01-04T02:45:00Z,27.8620,-80.4450,8.0,23.98,11111222 
FIT,ioos:station:wmo:SIPF1:1,2019-01-04T03:00:00Z,27.8620,-80.4450,8.0,24.0,11111222 
FIT,ioos:station:wmo:SIPF1:1,2019-01-04T03:15:00Z,27.8620,-80.4450,8.0,23.8,11111222 
FIT,ioos:station:wmo:SIPF1:1,2019-01-04T03:30:00Z,27.8620,-80.4450,8.0,23.1,11111222 
FIT,ioos:station:wmo:SIPF1:1,2019-01-04T03:45:00Z,27.8620,-80.4450,8.0,22.85,11111222 
FIT,ioos:station:wmo:SIPF1:1,2019-01-04T04:00:00Z,27.8620,-80.4450,8.0,22.7,11111222 